Muncie, IN

9:29 PM EST on February 07, 2016 (GMT -0500)
Delaware County-Johnson

Weather History for KMIE - May, 2014

Change the Weather History Date:

Saturday, May 10, 2014

  Actual Average Record
Temperature  
Mean Temperature 66 °F 60 °F  
Max Temperature 78 °F 70 °F 87 °F (1993)
Min Temperature 54 °F 50 °F 29 °F (1966)
Degree Days  
Heating Degree Days 0 7  
Month to date heating degree days 64 77  
Since 1 July heating degree days 6323 5669  
Cooling Degree Days 1 1  
Month to date cooling degree days 22 10  
Year to date cooling degree days 28 25  
Growing Degree Days 15 (Base 50)    
Moisture  
Dew Point 47 °F    
Average Humidity 56    
Maximum Humidity 90    
Minimum Humidity 28    
Precipitation  
Precipitation 0.00 in 0.13 in 1.69 in (2003)
Month to date precipitation T 1.25  
Year to date precipitation 10.63 12.41  
Sea Level Pressure  
Sea Level Pressure 29.93 in    
Wind  
Wind Speed 6 mph (WNW)    
Max Wind Speed 17 mph    
Max Gust Speed 25 mph    
Visibility 10 miles    
Events      
T = Trace of Precipitation, MM = Missing Value Source: NWS Daily Summary

Daily Weather History Graph

Daily Weather History Graph

Search for Another Location

Airport or City:

Trip Planner

Search our weather history database for the weather conditions in past years. The results will help you decide how hot, cold, wet, or windy it might be!

Date:

Astronomy

May. 10, 2014 Rise Set
Actual Time 6:30 AM EDT 8:45 PM EDT
Civil Twilight 6:00 AM EDT 9:16 PM EDT
Nautical Twilight 5:23 AM EDT 9:53 PM EDT
Astronomical Twilight 4:42 AM EDT 10:34 PM EDT
Moon 4:40 PM EDT (5/10) 4:03 AM EDT (5/10)
Length of Visible Light 15h 15m
Length of Day
14h 15m
Waxing Gibbous, 82% of the Moon is Illuminated
May 10
Waxing Gibbous
May 14
Full
May 21
Last Quarter
May 28
New
Jun 5
First Quarter

Hourly Weather History & Observations

Time (EDT) Temp. Dew Point Humidity Pressure Visibility Wind Dir Wind Speed Gust Speed Precip Events Conditions
1:53 AM 63.0 °F 53.1 °F 70% 29.89 in 10.0 mi SW 6.9 mph - N/A   Clear
2:53 AM 62.1 °F 54.0 °F 75% 29.89 in 10.0 mi SW 8.1 mph - N/A   Clear
3:36 AM 61.0 °F 54.0 °F 78% 29.92 in 10.0 mi WSW 8.1 mph - N/A   Mostly Cloudy
3:46 AM 60.1 °F 54.0 °F 80% 29.91 in 10.0 mi SSW 6.9 mph - N/A   Partly Cloudy
3:53 AM 60.1 °F 54.0 °F 80% 29.89 in 10.0 mi SW 4.6 mph - N/A   Partly Cloudy
4:26 AM 60.1 °F 54.0 °F 80% 29.92 in 10.0 mi WSW 5.8 mph - N/A   Mostly Cloudy
4:46 AM 59.0 °F 54.0 °F 83% 29.92 in 10.0 mi WSW 4.6 mph - N/A   Scattered Clouds
4:53 AM 59.0 °F 54.0 °F 83% 29.91 in 10.0 mi SW 5.8 mph - N/A   Partly Cloudy
5:53 AM 57.0 °F 53.1 °F 87% 29.92 in 10.0 mi NW 5.8 mph - N/A   Scattered Clouds
7:53 AM 55.9 °F 53.1 °F 90% 29.95 in 9.0 mi East 3.5 mph - N/A   Clear
8:53 AM 60.1 °F 51.1 °F 72% 29.96 in 10.0 mi East 4.6 mph - N/A   Partly Cloudy
9:53 AM 64.0 °F 44.1 °F 48% 29.95 in 10.0 mi NE 6.9 mph - N/A   Clear
10:53 AM 66.0 °F 43.0 °F 43% 29.96 in 10.0 mi Variable 6.9 mph - N/A   Clear
11:53 AM 68.0 °F 43.0 °F 40% 29.95 in 10.0 mi Calm Calm - N/A   Clear
12:53 PM 70.0 °F 46.0 °F 42% 29.94 in 10.0 mi Variable 3.5 mph - N/A   Partly Cloudy
1:53 PM 73.9 °F 46.0 °F 37% 29.92 in 10.0 mi North 5.8 mph - N/A   Partly Cloudy
2:53 PM 73.9 °F 44.1 °F 34% 29.91 in 10.0 mi North - - N/A   Partly Cloudy
3:53 PM 75.9 °F 43.0 °F 31% 29.90 in 10.0 mi North 11.5 mph - N/A   Mostly Cloudy
4:53 PM 75.9 °F 44.1 °F 32% 29.90 in 10.0 mi NW 15.0 mph 19.6 mph N/A   Partly Cloudy
5:53 PM 75.9 °F 41.0 °F 29% 29.91 in 10.0 mi NNW 11.5 mph - N/A   Clear
6:53 PM 73.9 °F 39.0 °F 28% 29.92 in 10.0 mi NW 13.8 mph - N/A   Clear
7:53 PM 72.0 °F 37.9 °F 29% 29.93 in 10.0 mi NNW 11.5 mph - N/A   Clear
8:53 PM 66.0 °F 37.9 °F 36% 29.94 in 10.0 mi NNE 4.6 mph - N/A   Clear
9:53 PM 62.1 °F 39.9 °F 44% 29.97 in 10.0 mi Calm Calm - N/A   Clear
11:53 PM 57.0 °F 43.0 °F 59% 30.00 in 10.0 mi Calm Calm - N/A   Clear